Details From GCGM - La Gomera
To FYWH - Windhoek Hosea Kutako Intl
Flight Number -
Tags Generated
Created
Modified
Stats Distance 3,640 nm / 6,741 km
Max Altitude 0 ft / 0 m
Waypoints 5
Social Downloads 0
Likes 0
Share VATSIM

Download

Looking for another format? Having issues loading an existing format? Contact us
Advertisement - Login to hide

Notes

Generated

Route

GCGM CABEL EPITI WHV FYWH

ID Type Via Altitude Latitude Longitude Leg Dist Tot Dist Heading (true) Name
O GCGM APT - 0 ft / 0 m 28.02859˚ -17.22214˚ - 0 nm - -
CABEL FIX - 0 ft / 0 m 25.00000˚ -14.94114˚ 219 nm 219 nm 146° / 147° -
EPITI FIX - 0 ft / 0 m 12.48500˚ -5.37528˚ 926 nm 1146 nm 142° / 146° -
WHV VOR - 0 ft / 0 m -22.47750˚ 17.47056˚ 2493 nm 3639 nm 147° / 145° WINDHOEK VOR-DME
O FYWH APT - 0 ft / 0 m -22.47768˚ 17.46905˚ 0 nm 3639 nm 263° / 263° Windhoek Hosea Kutako Intl

Altitude Profile

Advertisement - Login to hide

Weather


0- 5 10 15 20 25 30 35+ Temperature / ° C

Clouds and Precipitation
Forecast for 2017-12-17 06:00 UTC. Updated an hour ago

Ground ~20,000 ft ~40,000 ft Winds

GCGM

Details ICAO GCGM (GMZ)
Name La Gomera
Region Canary Islands
Timezone Atlantic/Canary (UTC+0.0)
Stats Elevation 715 ft / 218 m (AMSL)
Location 28.029627° -17.214603°
Runways 1
Magnetic Variation 5.358° W

METAR

GCGM 170600Z AUTO VRB09G20KT 9999 NCD 18/13 Q1022 RMK R09/VRB04KT ARP/VRB06G16KT

Decode

TAF

TAF AMD GCGM 170510Z 1705/1803 01006KT 9999 FEW025 TX21/1714Z TN18/1706Z BECMG 1705/1706 01016KT PROB30 1708/1720 01020G30KT

Decode

Departure Runways

ID Width Length Bearing (true) Bearing (mag) Surface Threshold Offset Overrun Length
09 98 ft / 30 m 4,914 ft / 1,498 m 81.17° 86.53° Asphalt 0 ft / 0 m 0 ft / 0 m
27 98 ft / 30 m 4,914 ft / 1,498 m 261.18° 266.54° Asphalt 0 ft / 0 m 0 ft / 0 m

FYWH

Details ICAO FYWH
Name Windhoek Hosea Kutako Intl
Region Namibia
Timezone Africa/Windhoek (UTC+2.0)
Stats Elevation 5,640 ft / 1,719 m (AMSL)
Location -22.481811° 17.471569°
Runways 2
Magnetic Variation 12.005° W

METAR

FYWH 170600Z 00000KT CAVOK 22/09 Q1022 NOSIG

Decode

TAF

TAF FYWH 162200Z 1700/1806 24005KT CAVOK BECMG 1708/1710 07005KT SCT050 BECMG 1713/1715 32008KT BKN045

Decode

Destination Runways

ID Width Length Bearing (true) Bearing (mag) Surface Threshold Offset Overrun Length
08 148 ft / 45 m 15,003 ft / 4,573 m 63.51° 75.52° Asphalt 0 ft / 0 m 345 ft / 105 m
16 98 ft / 30 m 5,010 ft / 1,527 m 141.33° 153.34° Asphalt 0 ft / 0 m 38 ft / 12 m
26 148 ft / 45 m 15,003 ft / 4,573 m 243.49° 255.50° Asphalt 0 ft / 0 m 84 ft / 26 m
34 98 ft / 30 m 5,010 ft / 1,527 m 321.32° 333.33° Asphalt 0 ft / 0 m 38 ft / 12 m

Approach Navaids

Runway Type Ident Frequency Range Bearing (true) Bearing (mag) Slope Elevation
26 Localiser WD 110.30 MHz 18 nm / 33 km 243.39° 255.40° - 5,640 ft / 1,719 m (AMSL)
26 Glidescope WD 110.30 MHz 10 nm / 19 km 243.50° 255.50° 3.00° 5,640 ft / 1,719 m (AMSL)

Popular Alternatives